Du Bois, PA

9:47 PM EST on December 15, 2019 (GMT -0500)
Du Bois-Jefferson County

Weather History for KDUJ - October, 2019

Change the Weather History Date:

Thursday, October 31, 2019

  Actual Average Record
Temperature  
Mean Temperature 50 °F 45 °F  
Max Temperature 66 °F 54 °F 72 °F (2003)
Min Temperature 34 °F 36 °F 19 °F (1975)
Degree Days  
Heating Degree Days 15 20  
Month to date heating degree days 404 495  
Since 1 July heating degree days 507 741  
Cooling Degree Days 0 0  
Month to date cooling degree days 23 2  
Year to date cooling degree days 430 362  
Moisture  
Dew Point 57 °F    
Average Humidity 92    
Maximum Humidity 100    
Minimum Humidity 70    
Precipitation  
Precipitation 1.96 in 0.11 in 0.55 in (1976)
Month to date precipitation 5.92 3.15  
Year to date precipitation 42.32 36.39  
Sea Level Pressure  
Sea Level Pressure 29.64 in    
Wind  
Wind Speed 9 mph ()    
Max Wind Speed 38 mph    
Max Gust Speed 51 mph    
Visibility 4.4 miles    
Events Fog , Rain    
T = Trace of Precipitation, MM = Missing Value Source: Averaged Metar Reports

Daily Weather History Graph

Daily Weather History Graph

Search for Another Location

Airport or City:

Astronomy

Oct. 31, 2019 Rise Set
Actual Time 7:45 AM EDT 6:12 PM EDT
Civil Twilight 7:16 AM EDT 6:41 PM EDT
Nautical Twilight 6:44 AM EDT 7:13 PM EDT
Astronomical Twilight 6:12 AM EDT 7:45 PM EDT
Moon 11:33 AM EDT (10/31) 9:05 PM EDT (10/31)
Length of Visible Light 11h 24m
Length of Day
10h 27m
Waxing Crescent, 15% of the Moon is Illuminated
Oct 31
Waxing Crescent
Nov 4
First Quarter
Nov 12
Full
Nov 19
Last Quarter
Nov 26
New

Hourly Weather History & Observations

Time (EDT) Temp. Windchill Dew Point Humidity Pressure Visibility Wind Dir Wind Speed Gust Speed Precip Events Conditions
12:15 AM 55.0 °F - 53.1 °F 93% 29.93 in 4.0 mi ESE 9.2 mph - 0.02 in Rain Light Rain
12:27 AM 55.0 °F - 53.1 °F 93% 29.92 in 4.0 mi ESE 8.1 mph - 0.02 in   Overcast
12:51 AM 55.4 °F - 53.6 °F 94% 29.92 in 2.5 mi SE 8.1 mph - 0.03 in   Overcast
12:53 AM 55.0 °F - 53.1 °F 93% 29.91 in 2.5 mi ESE 6.9 mph - 0.03 in   Overcast
1:43 AM 55.0 °F - 54.0 °F 96% 29.90 in 4.0 mi SE 9.2 mph - 0.07 in Rain Light Rain
1:53 AM 55.0 °F - 54.0 °F 96% 29.88 in 3.0 mi ESE 8.1 mph - 0.08 in Rain Light Rain
2:20 AM 55.0 °F - 54.0 °F 96% 29.88 in 2.5 mi SE 8.1 mph - 0.02 in Rain Light Rain
2:24 AM 55.0 °F - 54.0 °F 96% 29.88 in 3.0 mi SE 8.1 mph - 0.02 in   Overcast
2:29 AM 55.0 °F - 54.0 °F 96% 29.87 in 2.5 mi ESE 6.9 mph - 0.02 in Rain Light Rain
2:39 AM 55.0 °F - 54.0 °F 96% 29.87 in 4.0 mi ESE 6.9 mph - 0.04 in Rain Light Rain
2:53 AM 55.0 °F - 54.0 °F 96% 29.86 in 6.0 mi SE 5.8 mph - 0.05 in Rain Light Rain
3:53 AM 57.0 °F - 55.0 °F 93% 29.84 in 4.0 mi SSE 6.9 mph - 0.09 in   Overcast
4:53 AM 57.9 °F - 55.9 °F 93% 29.80 in 2.5 mi SSE 6.9 mph - 0.01 in   Overcast
5:22 AM 57.9 °F - 57.0 °F 97% 29.80 in 3.0 mi SSE 8.1 mph - N/A   Overcast
5:53 AM 57.9 °F - 57.0 °F 97% 29.79 in 6.0 mi South 8.1 mph - N/A   Overcast
6:35 AM 59.0 °F - 57.9 °F 96% 29.79 in 2.0 mi SSE 6.9 mph - N/A   Overcast
6:53 AM 59.0 °F - 57.9 °F 96% 29.78 in 2.5 mi SSE 6.9 mph - N/A   Overcast
7:20 AM 59.0 °F - 57.9 °F 96% 29.79 in 1.5 mi South 8.1 mph - N/A   Overcast
7:32 AM 59.0 °F - 57.9 °F 96% 29.79 in 2.0 mi South 6.9 mph - N/A   Overcast
7:53 AM 59.0 °F - 57.9 °F 96% 29.77 in 2.5 mi SSE 5.8 mph - N/A   Overcast
8:13 AM 60.1 °F - 57.9 °F 93% 29.78 in 5.0 mi SSE 4.6 mph - N/A   Overcast
8:33 AM 60.1 °F - 59.0 °F 96% 29.78 in 1.8 mi South 6.9 mph - N/A   Overcast
8:53 AM 60.1 °F - 59.0 °F 96% 29.76 in 1.0 mi South 4.6 mph - N/A   Mist
9:42 AM 61.0 °F - 60.1 °F 97% 29.75 in 2.5 mi South 6.9 mph - 0.01 in   Overcast
9:50 AM 60.8 °F - 60.8 °F 100% 29.74 in 3.0 mi South 6.9 mph - 0.01 in   Overcast
9:53 AM 61.0 °F - 60.1 °F 97% 29.73 in 2.5 mi SSE 10.4 mph - 0.01 in   Overcast
10:07 AM 61.0 °F - 60.1 °F 97% 29.74 in 3.0 mi South 6.9 mph - 0.01 in Rain Light Rain
10:53 AM 62.1 °F - 60.1 °F 93% 29.68 in 4.0 mi SE 8.1 mph - 0.07 in Rain Light Rain
11:10 AM 62.1 °F - 60.1 °F 93% 29.68 in 4.0 mi SE 6.9 mph - 0.03 in Rain Light Rain
11:23 AM 61.0 °F - 60.1 °F 97% 29.67 in 1.8 mi SE 9.2 mph - 0.10 in Rain Rain
11:31 AM 61.0 °F - 60.1 °F 97% 29.65 in 3.0 mi SE 10.4 mph - 0.11 in Rain Light Rain
11:51 AM 60.8 °F - 60.8 °F 100% 29.63 in 5.0 mi SE 11.5 mph - 0.11 in   Overcast
11:53 AM 61.0 °F - 60.1 °F 97% 29.62 in 5.0 mi SE 12.7 mph - 0.11 in   Overcast
12:23 PM 62.1 °F - 60.1 °F 93% 29.61 in 9.0 mi SE 9.2 mph 19.6 mph 0.00 in Rain Light Rain
12:42 PM 63.0 °F - 60.1 °F 90% 29.60 in 10.0 mi SE 10.4 mph 19.6 mph 0.01 in Rain Light Rain
12:53 PM 63.0 °F - 61.0 °F 93% 29.57 in 8.0 mi SSE 9.2 mph - 0.02 in Rain Light Rain
1:53 PM 64.9 °F - 62.1 °F 90% 29.52 in 10.0 mi SSE 10.4 mph 17.3 mph 0.00 in   Overcast
2:37 PM 64.9 °F - 63.0 °F 93% 29.50 in 1.8 mi SSE 8.1 mph - 0.07 in Rain Rain
2:53 PM 64.9 °F - 63.0 °F 93% 29.47 in 2.5 mi SE 10.4 mph - 0.14 in Rain Light Rain
2:55 PM 64.9 °F - 63.0 °F 93% 29.49 in 3.0 mi SSE 8.1 mph - 0.00 in Rain Light Rain
3:03 PM 64.9 °F - 63.0 °F 93% 29.48 in 4.0 mi SSE 12.7 mph 19.6 mph 0.01 in Rain Light Rain
3:30 PM 64.9 °F - 63.0 °F 93% 29.48 in 1.8 mi SSW 8.1 mph - 0.09 in Rain Light Rain
3:41 PM 64.9 °F - 63.0 °F 93% 29.48 in 0.5 mi South 9.2 mph 21.9 mph 0.42 in Fog , Rain Heavy Rain
3:48 PM 66.2 °F - 64.4 °F 94% 29.47 in 0.8 mi SW 9.2 mph 20.7 mph 0.48 in   Overcast
3:53 PM 64.9 °F - 64.0 °F 97% 29.45 in 1.2 mi Variable 4.6 mph - 0.52 in Rain Rain
4:01 PM 64.9 °F - 64.0 °F 97% 29.48 in 1.8 mi North - - 0.04 in Rain Rain
4:08 PM 66.0 °F - 64.0 °F 93% 29.47 in 2.5 mi North - - 0.06 in Rain Light Rain
4:10 PM 66.0 °F - 64.0 °F 93% 29.46 in 3.0 mi North - - 0.07 in Rain Light Rain
4:21 PM 66.0 °F - 64.0 °F 93% 29.48 in 1.5 mi North - - 0.16 in Rain Rain
4:30 PM 64.9 °F - 63.0 °F 93% 29.48 in 0.5 mi North - - 0.39 in Fog Fog
4:32 PM 64.9 °F - 63.0 °F 93% 29.48 in - North - - 0.40 in Rain Heavy Rain
4:37 PM 64.9 °F - 63.0 °F 93% 29.48 in 0.8 mi North - - 0.44 in Rain Rain
4:39 PM 64.9 °F - 63.0 °F 93% 29.49 in 1.0 mi North - - 0.49 in Rain Rain
4:45 PM 64.0 °F - 63.0 °F 96% 29.47 in 0.5 mi North - - 0.68 in Fog , Rain Heavy Rain
4:53 PM 64.9 °F - 63.0 °F 93% 29.44 in 3.0 mi North - - 0.69 in Rain Light Rain
5:15 PM 64.9 °F - 63.0 °F 93% 29.47 in 10.0 mi SW 11.5 mph - 0.01 in   Overcast
5:49 PM 64.4 °F - 62.6 °F 94% 29.46 in 10.0 mi SW 16.1 mph 25.3 mph 0.02 in Rain Light Rain
5:53 PM 64.9 °F - 62.1 °F 90% 29.44 in 10.0 mi SW 17.3 mph 24.2 mph 0.02 in   Overcast
6:03 PM 64.9 °F - 61.0 °F 87% 29.45 in 9.0 mi SW 17.3 mph 25.3 mph 0.00 in Rain Light Rain
6:16 PM 64.0 °F - 62.1 °F 93% 29.45 in 4.0 mi SW 11.5 mph - 0.03 in Rain Light Rain
6:36 PM 62.1 °F - 57.9 °F 86% 29.47 in 8.0 mi SW 24.2 mph 35.7 mph 0.05 in Rain Light Rain
6:42 PM 61.0 °F - 57.0 °F 87% 29.48 in 6.0 mi WSW 25.3 mph 35.7 mph 0.06 in Rain Light Rain
6:53 PM 60.1 °F - 55.9 °F 86% 29.47 in 5.0 mi SW 23.0 mph 34.5 mph 0.08 in Rain Light Rain
7:11 PM 57.9 °F - 55.0 °F 90% 29.51 in 7.0 mi WSW 20.7 mph 33.4 mph 0.03 in Rain Light Rain
7:23 PM 57.9 °F - 55.0 °F 90% 29.51 in 5.0 mi WSW 19.6 mph 28.8 mph 0.06 in Rain Light Rain
7:31 PM 57.0 °F - 54.0 °F 89% 29.51 in 5.0 mi West 21.9 mph 34.5 mph 0.07 in Rain Light Rain
8:31 PM 52.0 °F - 46.9 °F 83% 29.57 in 10.0 mi SW 23.0 mph 35.7 mph N/A   Overcast
8:53 PM 48.0 °F - 43.0 °F 83% 29.60 in 10.0 mi WSW 19.6 mph 44.9 mph N/A   Overcast
9:53 PM 43.0 °F 33.1 °F 34.0 °F 71% 29.67 in 10.0 mi SW 26.5 mph 43.7 mph N/A   Overcast
10:53 PM 39.0 °F 26.8 °F 30.0 °F 70% 29.71 in 10.0 mi WSW 32.2 mph 46.0 mph N/A   Overcast
11:03 PM 37.9 °F 25.7 °F 28.9 °F 70% 29.72 in 10.0 mi WSW 29.9 mph 43.7 mph N/A   Overcast
11:53 PM 37.0 °F 24.5 °F 28.9 °F 73% 29.75 in 10.0 mi WSW 29.9 mph 42.6 mph N/A   Overcast